{"data":{"norad_id":50831,"intl_designator":"2022-001AE","name":"STARLINK-3299","alt_names":[],"object_type":"PAYLOAD","status":"ACTIVE","operator":null,"country":"US","launch_date":"2022-01-06","launch_site_code":"AFETR","launch_vehicle":null,"mission":null,"orbit_class":"UNKNOWN","rcs_meters":null,"size_class":null,"mass_kg":null,"dimensions":null,"purposes":["comms"],"wikipedia_slug":null,"has_3d_model":false,"image_url":null,"decayed_at":null,"tle_current":{"epoch":"2026-05-25T02:28:45.061248Z","epoch_age_seconds":62603,"freshness":"FRESH","line1":"1 50831U 22001AE  26145.10329932  .00000170  00000+0  28747-4 0  9998","line2":"2 50831  53.2144 186.1540 0001148  86.8472 273.2651 15.08837850241943","mean_motion":15.0883785,"eccentricity":0.0001148,"inclination_deg":53.2144,"raan_deg":186.154,"arg_perigee_deg":86.8472,"mean_anomaly_deg":273.2651,"bstar":2.8747e-5,"rev_number":24194,"period_min":95.437690670339,"perigee_km":538.9557872387,"apogee_km":540.54413408487,"semimajor_km":6917.8869606618,"source":"CELESTRAK","updated_at":"2026-05-25T13:38:16.879804Z"}}}